Location: Pardubice
(50.0330°N, 15.7830°E)
Time: 00:50:29
(UTC+02:00)

Tiangong - Visible Passes

Search period start: 16 May 2026 00:00
Search period end: 26 May 2026 00:00
Orbit: 379 x 384 km, 41.5° (Epoch: 13 May)

Date Brightness Start Highest point End Pass type
(mag) Time Alt. Az. Time Alt. Az. Time Alt. Az.
20 May 0.0 22:12:42 10° SSW 22:13:26 12° S 22:13:26 12° S visible
21 May 0.2 22:47:35 10° SW 22:48:11 13° SSW 22:48:11 13° SSW visible
22 May -0.3 21:47:03 10° SSW 21:49:04 16° S 21:50:26 13° SE visible
23 May -0.4 22:22:14 10° SW 22:24:25 17° S 22:24:36 17° S visible
24 May 0.3 22:58:02 10° SW 22:58:36 12° SW 22:58:36 12° SW visible
25 May -0.2 21:56:56 10° SW 21:58:59 16° S 22:00:23 13° SSE visible
